OH2FDL-2 Weather Reports


Display with metric or nautical units.
time (UTC)temp
F
wind
direction
speed
MPH
gust
MPH
rain 1hr
in
rain 24hr
in
rain mn
in
humidity
%
barometer
mb
20260504194518 47 0.0 0.0 0.00 0.00 0.00 10 998.4
20260504193017 48 0.0 0.0 0.00 0.00 0.00 10 998.3
20260504191518 48 0.0 0.0 0.00 0.00 0.00 10 998.3
20260504190017 49 0.0 0.0 0.00 0.00 0.00 10 998.2
20260504184518 50 0.0 0.0 0.00 0.00 0.00 10 998.1
20260504183019 50 0.0 0.0 0.00 0.00 0.00 10 997.9
20260504181518 51 0.0 0.0 0.00 0.00 0.00 10 998.0
20260504180018 51 0.0 0.0 0.00 0.00 0.00 10 997.8
20260504174518 52 0.0 0.0 0.00 0.00 0.00 10 997.6
20260504081518 58 0.0 0.0 0.00 0.00 0.00 64 999.9
20260504050017 48 0.0 0.0 0.00 0.00 0.00 85 1001.1
20260504044518 47 0.0 0.0 0.00 0.00 0.00 87 1001.2
20260504043018 46 0.0 0.0 0.00 0.00 0.00 88 1001.3
20260504040018 44 0.0 0.0 0.00 0.00 0.00 91 1001.6
20260504034517 43 0.0 0.0 0.00 0.00 0.00 91 1001.7
20260504033018 43 0.0 0.0 0.00 0.00 0.00 89 1001.7
20260504031518 43 0.0 0.0 0.00 0.00 0.00 87 1001.8
20260504030018 43 0.0 0.0 0.00 0.00 0.00 85 1001.7
20260504024518 44 0.0 0.0 0.00 0.00 0.00 83 1001.7
20260504023018 44 0.0 0.0 0.00 0.00 0.00 81 1002.0
20260504021518 45 0.0 0.0 0.00 0.00 0.00 79 1002.1
20260504020018 47 0.0 0.0 0.00 0.00 0.00 78 1002.1
20260504013017 48 0.0 0.0 0.00 0.00 0.00 79 1002.5
20260504011518 48 0.0 0.0 0.00 0.00 0.00 80 1002.5
20260504010017 48 0.0 0.0 0.00 0.00 0.00 81 1002.5
20260504004517 49 0.0 0.0 0.00 0.00 0.00 82 1002.4
20260504003018 50 0.0 0.0 0.00 0.00 0.00 84 1002.6
20260504001517 50 0.0 0.0 0.00 0.00 0.00 84 1002.7
20260504000018 50 0.0 0.0 0.00 0.00 0.00 85 1002.7
20260503234517 51 0.0 0.0 0.00 0.00 0.00 86 1002.7
20260503233018 51 0.0 0.0 0.00 0.00 0.00 88 1002.8
20260503231517 51 0.0 0.0 0.00 0.00 0.00 91 1002.9
20260503230017 51 0.0 0.0 0.00 0.00 0.00 94 1002.9
20260503224517 52 0.0 0.0 0.00 0.00 0.00 97 1003.0
20260503223018 52 0.0 0.0 0.00 0.00 0.00 99 1003.0
20260503221518 52 0.0 0.0 0.00 0.00 0.00 10 1003.0
20260503220017 52 0.0 0.0 0.00 0.00 0.00 10 1003.1
20260503214517 52 0.0 0.0 0.00 0.00 0.00 10 1003.1
20260503213019 52 0.0 0.0 0.00 0.00 0.00 10 1003.2
20260503211518 52 0.0 0.0 0.00 0.00 0.00 10 1003.1
20260503210017 52 0.0 0.0 0.00 0.00 0.00 10 1003.1
20260503204518 52 0.0 0.0 0.00 0.00 0.00 10 1003.1
20260503203018 53 0.0 0.0 0.00 0.00 0.00 10 1003.2
20260503201518 53 0.0 0.0 0.00 0.00 0.00 10 1003.2
20260503200018 53 0.0 0.0 0.00 0.00 0.00 99 1003.3